User: anonymous   Login
Location: Unspecified
(0.0000°N, 0.0000°E)
Time: 19:38:48
(UTC+00:00)
Language:

GONETS M 12 (M22) - Orbit

View from above orbital plane
View from above orbital plane
View from above satellite
View from above satellite

Ground track
Ground track

The orbit data is extracted from the following two-line orbital elements,

1 40553U 15020B   19340.73062347  .00000037  00000-0  19316-3 0  9997
2 40553  82.4907  77.0995 0015504 146.2987 213.9086 12.42891213212566
Epoch (UTC): 06 December 2019 17:32:05
Eccentricity: 0.0015504
inclination: 82.4907°
perigee height: 1482 km
apogee height: 1506 km
right ascension of ascending node: 77.0995°
argument of perigee: 146.2987°
revolutions per day: 12.42891213
mean anomaly at epoch: 213.9086°
orbit number at epoch: 21256

The dashed part of the orbit path shows where the satellite is in the earth's shadow,  

DLR